CARBONITE 1

Satellite information

Favourite Embed

Satellite Type and Status

PAYLOADIN ORBIT

Key statistics

Satellite CARBONITE 1 at a glance.

Uptime

3713

Days in orbit

Revolutions

≈ 14.8

Per day

Orbit

SSO

Sun Synchronous Orbit

Inclination

97.6

Latest

Satellite identification and parameters

Extended collection of information and parameters for CARBONITE 1.

Object identification

Identified? True

Debris? False

Object name: CARBONITE 1

International designator: 2015-032D

Object number (NORAD): 40718

Object ID (CCSDS): 40718

Country: UNITED KINGDOM (UK)

Current information (Y/N): Y

RCS size: MEDIUM

Orbital parameters

Period: 97.159 minutes

Inclination: 97.6446 deg

SMA: 7000.804 km

Apoapsis: 633.66 km

Periapsis: 611.678 km

RAAN: 76.2897 deg

Eccentricy: 0.00156993

Argument of periapsis: 136.4604 deg

Mean anomaly: 223.7852 deg

Mean motion: 14.82111488 rev/day

Mean motion (dot): 0.00002605 rev/day2

B* drag term: 0.00033313223 1/REarth

Two-line elements (TLE)

Creation date: Sept. 8, 2025, 3:16 a.m.

Reference frame: TEME

Reference center: EARTH

Epoch: Sept. 8, 2025, 12:04 a.m. UTC

TLE line 0: 0 CARBONITE 1

TLE line 1: 1 40718U 15032D 25251.00284089 .00002605 00000-0 33313-3 0 9996

TLE line 2: 2 40718 97.6446 76.2897 0015699 136.4604 223.7852 14.82111488547521

Live tracking on map

Real-time ground track for satellite CARBONITE 1.

In-orbit conjunctions

There are no conjunctions computed for CARBONITE 1, at the moment. Check back to stay up to date, as we update our databases every day.

Go to all conjunctions

Associated space launch

The Polar Satellite Launch Vehicle (PSLV), in its thirtieth flight (PSLV-C28), will launch three identical DMC3 optical earth observation satellites. A, B and C. It will also carry two auxiliary satellites from UK. CBNT-1, a technology demonstrator earth observation micro satellite, and De-OrbitSail, a technology demonstrator nano satellite.

CARBONITE 1 was lifted into orbit during the mission ‘PSLV XL | DMC-3A, DMC-3B, DMC-3C, CBNT-1 & DeOrbitSAIL’, on board a PSLV-XL space rocket.

The launch took place on July 10, 2015, 4:28 p.m. from Satish Dhawan Space Centre First Launch Pad.

For more information about the launch, click the button.

Launch to space PSLV XL | DMC-3A, DMC-3B, DMC-3C, CBNT-1 & DeOrbitSAIL
PSLV XL | DMC-3A, DMC-3B, DMC-3C, CBNT-1 & DeOrbitSAIL

Agency: N/A

Status: Launch Successful

Launch date: July 10, 2015, 4:28 p.m. UTC

Rocket: PSLV-XL

Launch pad: Satish Dhawan Space Centre First Launch Pad

Location: Satish Dhawan Space Centre, India

...

Latest news about this satellite

There are no fresh news available about this satellite. Check back as we update our databases every day.


Newsletter sign-up

Weekly statistics, charts and insights to help you stay on top of the space industry.